Regional Weather Roundup
Issued by NWS

Home | Current Version | Previous Version | Graphics & Text | Print | Product List | Glossary On
Versions: 1 2 3 4 5 6 7 8 9 10 11 12 13 14 15 16 17 18 19 20 21 22 23 24 25 26 27 28 29 30 31 32 33 34 35 36 37 38 39 40 41 42 43 44 45 46 47 48 49 50
000
ASUS43 KFSD 251002
RWRSD

WEATHER ROUNDUP FOR SOUTH DAKOTA
NATIONAL WEATHER SERVICE SIOUX FALLS SD
500 AM CDT WED APR 25 2018

NOTE: "FAIR" INDICATES FEW OR NO CLOUDS BELOW 12,000 FEET WITH NO
SIGNIFICANT WEATHER AND/OR OBSTRUCTIONS TO VISIBILITY.


SDZ001>005-009-010-012>017-251100-
NORTHWEST AND NORTH CENTRAL SOUTH DAKOTA

CITY           SKY/WX    TMP DP  RH WIND       PRES   REMARKS
BUFFALO          N/A     34  24  67 W5        30.20F WCI  30
FAITH            N/A     35  26  69 SW8       30.29F WCI  29
MOBRIDGE       CLEAR     32  28  85 CALM      30.28S
$$

SDZ012>016-024>037-041>051-057-063-072>074-251100-
SOUTHWEST AND SOUTH CENTRAL SOUTH DAKOTA

CITY           SKY/WX    TMP DP  RH WIND       PRES   REMARKS
RAPID CTY ARPT CLEAR     30  21  69 SW8       30.32F WCI  22
PIERRE         CLEAR     31  30  96 SW7       30.32F WCI  24
CUSTER         PTCLDY    25  18  74 W5        30.30F WCI  19
ELLSWORTH AFB  CLEAR     31  23  73 SW6       30.31F WCI  25
PHILIP         CLEAR     29  26  89 W10       30.34S WCI  20
PINE RIDGE     CLEAR     23  21  92 E6        30.35F WCI  16
SPEARFISH      FAIR      28  19  69 SE7       30.29F WCI  21
WINNER         FAIR      34  29  82 W7        30.34S WCI  28
$$

SDZ004>011-016>023-039-040-251100-
NORTHEAST SOUTH DAKOTA

CITY           SKY/WX    TMP DP  RH WIND       PRES   REMARKS
ABERDEEN       CLEAR     24  23  96 CALM      30.32S
WATERTOWN      CLEAR     28  27  96 CALM      30.29R
BROOKINGS      CLEAR     33  28  81 N5        30.29S WCI  29
SISSETON         N/A     30  26  85 CALM      30.29F
$$

SDZ017-020-022-023-036>040-048>070-251100-
SOUTHEAST SOUTH DAKOTA

CITY           SKY/WX    TMP DP  RH WIND       PRES   REMARKS
SIOUX FALLS    CLEAR     31  26  82 N3        30.28S
HURON          CLEAR     28  26  92 W5        30.32S WCI  23
CHAMBERLAIN    CLEAR     31  31 100 W5        30.33F WCI  26
MITCHELL       CLEAR     33  29  85 W6        30.33S WCI  28
YANKTON        PTCLDY    39  33  79 NW12      30.29F
$$

ABBREVIATIONS USED IN REMARKS
   TC - TEMPERATURE IN CELSIUS
  WCI - WIND CHILL INDEX
   HX - HEAT INDEX
  VSB - VISIBILITY





USA.gov is the U.S. government's official web portal to all federal, state and local government web resources and services.